This demonstration page uses our WeatherBlox Daily Observations layout. Learn more.

Left ArrowRight Arrow

Hourly Observations for February 18, 2020

Temp ( °F °C ) Dew Point ( °F °C ) Humidity (%) Winds ( mph kmh ) Pressure ( in mb ) Visibility ( mi km ) Precip ( " mm )
12:53 am 00:53 Mostly Cloudy 54 12.2 40 4.4 59 59 SW 9 15 29.90 1013 10 16 N/A
1:53 am 01:53 Cloudy 55 12.8 44 6.7 67 67 SW 10 17 29.91 1013 10 16 N/A
2:31 am 02:31 Cloudy 54 12.2 45 7.2 72 72 WSW 9 15 29.91 1013 10 16 N/A
2:53 am 02:53 Cloudy 54 12.2 46 7.8 75 75 SW 6 9 29.92 1013 10 16 N/A
3:53 am 03:53 Cloudy 50 10 48 8.9 93 93 WSW 5 7 29.92 1013 7 11 0.00 0.00
4:03 am 04:03 Cloudy 50 10 48 8.9 93 93 VRB 3 6 29.93 1013 8 13 N/A
4:14 am 04:14 Cloudy 50 10 48 8.9 93 93 WSW 3 6 29.93 1013 10 16 N/A
4:53 am 04:53 Cloudy with Mist and Fog 51 10.6 49 9.4 92 92 SSW 3 6 29.93 1013 6 10 N/A
5:10 am 05:10 Cloudy 51 10.6 49 9.4 92 92 SW 7 11 29.94 1014 10 16 N/A
5:46 am 05:46 Cloudy 52 11.1 49 9.4 89 89 SW 7 11 29.95 1014 10 16 N/A
5:53 am 05:53 Cloudy 52 11.1 49 9.4 89 89 SW 6 9 29.95 1014 10 16 N/A
6:40 am 06:40 Cloudy with Light Rain 51 10.6 50 10 96 96 W 6 9 29.97 1015 3 5 0.01 0.25
6:53 am 06:53 Cloudy with Mist and Fog 51 10.6 50 10 96 96 WSW 6 9 29.97 1015 4 6 0.01 0.25
7:53 am 07:53 Cloudy with Mist and Fog 51 10.6 50 10 96 96 W 6 9 29.98 1015 5 8 N/A
8:02 am 08:02 Cloudy with Mist and Fog 51 10.6 50 10 96 96 VRB 6 9 29.99 1015 3 4 N/A
8:10 am 08:10 Cloudy with Mist and Fog 51 10.6 50 10 96 96 VRB 5 7 29.98 1015 3 4 N/A
8:19 am 08:19 Cloudy with Mist and Fog 51 10.6 50 10 96 96 WSW 5 7 29.99 1015 5 8 N/A
8:53 am 08:53 Cloudy with Light Rain 51 10.6 50 10 96 96 WSW 6 9 30.01 1016 5 8 0.01 0.25
9:00 am 09:00 Cloudy with Rain 51 10.6 50 10 96 96 WSW 6 9 30.02 1016 3 4 0.01 0.25
9:11 am 09:11 Cloudy with Light Rain 51 10.6 50 10 96 96 WSW 6 9 30.02 1016 4 6 0.02 0.51
9:53 am 09:53 Cloudy with Light Rain 51 10.6 50 10 96 96 W 7 11 30.03 1017 5 8 0.03 0.76
10:36 am 10:36 Cloudy 50 10 47 8.3 89 89 WNW 12 19 30.06 1018 7 11 0.00 0.00
10:49 am 10:49 Cloudy with Mist and Fog 48 9 46 8 94 94 NW 16 26 30.07 1018 6 10 0.00 0.00
10:53 am 10:53 Cloudy with Mist and Fog 48 8.9 46 7.8 93 93 NW 14 22 30.07 1018 6 10 0.00 0.00
11:12 am 11:12 Cloudy 48 8.9 44 6.7 86 86 NW 18 30 30.09 1019 8 13 N/A
11:43 am 11:43 Mostly Cloudy 48 8.9 42 5.6 80 80 WNW 12 19 30.10 1019 10 16 N/A
11:53 am 11:53 Cloudy 48 8.9 43 6.1 83 83 WNW 13 20 30.10 1019 10 16 N/A
12:10 pm 12:10 Mostly Cloudy 48 8.9 41 5 77 77 NW 13 20 30.11 1020 10 16 N/A
12:18 pm 12:18 Cloudy 47 8.3 40 4.4 77 77 NW 14 22 30.10 1019 10 16 N/A
12:53 pm 12:53 Cloudy 47 8.3 39 3.9 74 74 NW 15 24 30.09 1019 10 16 N/A
1:53 pm 13:53 Cloudy 46 7.8 38 3.3 73 73 NW 14 22 30.09 1019 10 16 N/A
2:53 pm 14:53 Cloudy 45 7.2 36 2.2 71 71 NW 15 24 30.11 1020 10 16 N/A
3:32 pm 15:32 Mostly Cloudy 45 7.2 34 1.1 66 66 NNW 15 24 30.15 1021 10 16 N/A
3:39 pm 15:39 Partly Cloudy 44 6.7 34 1.1 68 68 NW 10 17 30.15 1021 10 16 N/A
3:53 pm 15:53 Partly Cloudy 44 6.7 34 1.1 68 68 NNW 10 17 30.14 1021 10 16 N/A
4:53 pm 16:53 Mostly Cloudy 42 5.6 32 undefined 68 68 NW 13 20 30.17 1022 10 16 N/A
5:53 pm 17:53 Mostly Sunny 41 5 31 -0.6 67 67 NW 12 19 30.20 1023 10 16 N/A
6:53 pm 18:53 Cloudy 41 5 32 undefined 70 70 WNW 7 11 30.25 1025 10 16 N/A
7:53 pm 19:53 Clear 39 3.9 31 -0.6 73 73 WNW 6 9 30.27 1025 10 16 N/A
8:53 pm 20:53 Clear 36 2.2 30 -1.1 79 79 NW 6 9 30.30 1026 10 16 N/A
9:53 pm 21:53 Clear 36 2.2 28 -2.2 73 73 NW 6 9 30.31 1027 10 16 N/A
10:53 pm 22:53 Clear 33 0.6 28 -2.2 82 82 NW 6 9 30.34 1027 9 14 N/A
11:53 pm 23:53 Clear 32 undefined 28 -2.2 85 85 NW 7 11 30.36 1028 8 13 N/A

Powered by AerisWeather